DW1824 Weather Reports


time (UTC)temp
F
wind
direction
speed
knots
gust
knots
rain 1hr
in
rain 24hr
in
rain mn
in
humidity
%
barometer
mb
20260506184336 82 34 0.0 0.9 0.01 0.03 0.03 85 1009.8
20260506183345 82 107 0.9 3.5 0.02 0.03 0.03 85 1009.8
20260506182351 81 130 0.0 2.6 0.01 0.02 0.02 86 1010.0
20260506181336 81 117 1.7 3.5 0.01 0.02 0.02 87 1010.1
20260506180338 80 135 0.0 2.6 0.01 0.02 0.02 89 1010.3
20260506175325 80 123 0.0 1.7 0.01 0.02 0.02 90 1010.5
20260506174352 79 188 0.9 2.6 0.01 0.02 0.02 89 1010.8
20260506173336 80 110 0.9 2.6 0.00 0.01 0.01 88 1010.9
20260506172324 80 23 0.0 0.9 0.01 0.01 0.01 90 1011.0
20260506171355 80 4 0.0 0.9 0.01 0.01 0.01 90 1011.2
20260506170400 80 4 0.0 0.9 0.01 0.01 0.01 90 1011.2
20260506165328 79 128 0.0 0.0 0.01 0.01 0.01 90 1011.3
20260506164336 79 128 0.0 0.9 0.01 0.01 0.01 89 1011.2
20260506163359 79 129 0.0 3.5 0.01 0.01 0.01 87 1011.1
20260506162324 80 123 0.9 3.5 0.00 0.00 0.00 86 1011.0
20260506161331 80 128 1.7 4.3 0.00 0.00 0.00 85 1010.9
20260506160334 80 130 1.7 6.1 0.00 0.00 0.00 86 1010.5
20260506155325 80 140 0.0 2.6 0.00 0.00 0.00 87 1010.5
20260506154333 80 130 0.0 1.7 0.00 0.00 0.00 87 1010.4
20260506153340 79 121 0.9 4.3 0.00 0.00 0.00 87 1010.4
20260506152327 79 142 0.0 3.5 0.00 0.00 0.00 87 1010.5
20260506151335 79 133 1.7 3.5 0.00 0.00 0.00 87 1010.5
20260506150358 79 141 0.9 4.3 0.00 0.00 0.00 87 1010.3
20260506145326 79 130 3.5 4.3 0.00 0.00 0.00 88 1010.1
20260506144337 79 129 1.7 3.5 0.00 0.00 0.00 90 1010.1
20260506143401 79 125 1.7 5.2 0.00 0.00 0.00 90 1009.8
20260506142328 78 124 1.7 5.2 0.00 0.00 0.00 91 1009.5
20260506141336 78 131 2.6 7.0 0.00 0.00 0.00 91 1009.4
20260506140340 78 123 1.7 5.2 0.00 0.00 0.00 92 1009.5
20260506135329 77 129 1.7 4.3 0.00 0.00 0.00 92 1009.6
20260506134337 77 111 2.6 6.1 0.00 0.00 0.00 93 1009.6
20260506133326 77 114 3.5 7.8 0.00 0.00 0.00 93 1009.6
20260506132353 77 126 2.6 6.1 0.00 0.00 0.00 94 1009.6
20260506131340 76 127 1.7 6.1 0.00 0.00 0.00 94 1009.7
20260506130323 76 127 1.7 3.5 0.00 0.00 0.00 94 1009.9
20260506125332 76 78 0.0 0.9 0.00 0.00 0.00 94 1009.8
20260506124340 75 117 0.0 0.0 0.00 0.00 0.00 94 1009.7
20260506123326 75 97 0.0 0.0 0.00 0.00 0.00 94 1009.6
20260506122339 75 101 0.0 0.0 0.00 0.00 0.00 94 1009.5
20260506121346 75 119 0.0 0.0 0.00 0.00 0.00 94 1009.5
20260506120329 75 119 0.0 1.7 0.00 0.00 0.00 94 1009.4
20260506115336 75 121 0.9 2.6 0.00 0.00 0.00 94 1009.2
20260506114324 75 121 0.0 1.7 0.00 0.00 0.00 94 1009.1
20260506113328 75 133 0.9 2.6 0.00 0.00 0.00 94 1009.0
20260506112336 75 141 0.9 4.3 0.00 0.00 0.00 94 1009.0
20260506111342 75 127 2.6 5.2 0.00 0.00 0.00 94 1008.8
20260506110329 75 144 0.9 3.5 0.00 0.00 0.00 94 1008.8
20260506105336 75 143 1.7 5.2 0.00 0.00 0.00 93 1008.6
20260506104342 75 134 1.7 6.1 0.00 0.00 0.00 93 1008.6
20260506103325 75 165 3.5 7.8 0.00 0.00 0.00 93 1008.4
20260506102334 75 134 2.6 6.1 0.00 0.00 0.00 93 1008.4
20260506101342 75 136 1.7 4.3 0.00 0.00 0.00 93 1008.6
20260506100327 75 140 2.6 5.2 0.00 0.00 0.00 93 1008.5
20260506095337 75 138 2.6 5.2 0.00 0.00 0.00 93 1008.4
20260506094325 76 145 1.7 6.1 0.00 0.00 0.00 93 1008.3
20260506093327 76 140 3.5 6.1 0.00 0.00 0.00 93 1008.2
20260506092335 76 136 2.6 7.0 0.00 0.00 0.00 93 1008.3
20260506091341 76 138 3.5 8.7 0.00 0.00 0.00 93 1008.2
20260506090327 76 140 1.7 5.2 0.00 0.00 0.00 93 1008.1
20260506085339 76 136 2.6 7.0 0.00 0.00 0.00 92 1008.1
20260506084324 76 138 2.6 6.1 0.00 0.00 0.00 93 1008.4
20260506083325 76 142 1.7 3.5 0.00 0.00 0.00 93 1008.5
20260506082353 76 144 0.9 3.5 0.00 0.00 0.00 93 1008.5
20260506081400 76 153 1.7 3.5 0.00 0.00 0.00 93 1008.6
20260506080341 76 130 0.9 2.6 0.00 0.00 0.00 93 1008.8
20260506073346 76 134 1.7 3.5 0.00 0.00 0.00 93 1009.0
20260506072330 76 132 1.7 3.5 0.00 0.00 0.00 93 1009.1
20260506071338 76 127 0.0 4.3 0.00 0.00 0.00 92 1009.2
20260506070341 76 138 0.0 2.6 0.00 0.00 0.00 92 1009.4
20260506062323 77 140 2.6 7.0 0.00 0.00 0.00 92 1009.3
20260506061334 77 133 2.6 6.1 0.00 0.00 0.00 91 1009.4
20260506060359 77 133 2.6 4.3 0.00 0.00 0.00 91 1009.4
20260506051324 77 135 2.6 6.1 0.00 0.00 0.00 90 1009.4
20260506050328 77 151 1.7 4.3 0.00 0.00 0.00 89 1009.6
20260506044325 77 112 0.9 5.2 0.00 0.00 0.00 89 1009.5
20260506043329 77 142 1.7 6.1 0.00 0.00 0.00 89 1009.3
20260506042336 78 121 2.6 5.2 0.00 0.00 0.00 88 1009.4
20260506041323 78 137 1.7 4.3 0.00 0.00 0.00 88 1009.4
20260506040330 78 146 1.7 4.3 0.00 0.00 0.00 88 1009.3
20260506035322 78 141 1.7 4.3 0.00 0.00 0.00 87 1009.2
20260506034330 78 142 1.7 4.3 0.00 0.00 0.00 87 1009.1
20260506033338 78 160 0.9 2.6 0.00 0.00 0.00 87 1009.0
20260506032327 78 141 0.0 5.2 0.00 0.00 0.00 87 1009.1
20260506031336 78 139 1.7 4.3 0.00 0.00 0.00 87 1008.9
20260506030342 78 135 1.7 3.5 0.00 0.00 0.00 87 1008.7
20260506025351 78 135 0.9 4.3 0.00 0.00 0.00 87 1008.5
20260506024323 78 146 2.6 6.1 0.00 0.00 0.00 86 1008.4
20260506023328 79 188 2.6 7.0 0.00 0.00 0.00 86 1008.3
20260506022336 79 136 2.6 4.3 0.00 0.00 0.00 86 1008.1
20260506021324 79 136 1.7 7.0 0.00 0.00 0.00 85 1007.9
20260506020329 79 131 1.7 6.1 0.00 0.00 0.00 85 1007.9
20260506015336 79 150 1.7 4.3 0.00 0.00 0.00 85 1007.8
20260506014343 79 149 0.9 4.3 0.00 0.00 0.00 84 1007.7
20260506013348 79 145 1.7 5.2 0.00 0.00 0.00 84 1007.5
20260506012339 79 135 0.9 6.1 0.00 0.00 0.00 83 1007.4
20260506011324 79 143 1.7 4.3 0.00 0.00 0.00 82 1007.3
20260506010327 80 144 1.7 6.1 0.00 0.00 0.00 82 1007.1
20260506005333 80 143 1.7 6.1 0.00 0.00 0.00 82 1006.9
20260506004401 80 137 1.7 6.1 0.00 0.00 0.00 81 1006.8
20260506003342 80 148 1.7 4.3 0.00 0.00 0.00 81 1006.8
20260506002328 80 135 2.6 6.1 0.00 0.00 0.00 79 1006.9
20260506001335 81 141 1.7 7.8 0.00 0.00 0.00 79 1006.7
20260506000341 81 135 2.6 5.2 0.00 0.00 0.00 80 1006.7
20260505235328 81 142 1.7 7.0 0.00 0.00 0.00 80 1006.8
20260505234335 81 166 3.5 8.7 0.00 0.00 0.00 79 1006.7
20260505233337 81 143 2.6 5.2 0.00 0.00 0.00 79 1006.7
20260505232345 82 152 2.6 6.1 0.00 0.00 0.00 78 1006.6
20260505231332 82 180 1.7 9.6 0.00 0.00 0.00 79 1006.6
20260505230335 82 142 2.6 11.3 0.00 0.00 0.00 78 1006.6
20260505225326 82 155 4.3 7.0 0.00 0.00 0.00 77 1006.5
20260505224334 82 192 2.6 10.4 0.00 0.00 0.00 77 1006.6
20260505223338 82 182 3.5 7.8 0.00 0.00 0.00 78 1006.6
20260505222325 83 167 3.5 10.4 0.00 0.00 0.00 77 1006.6
20260505221353 83 167 2.6 8.7 0.00 0.00 0.00 77 1006.6
20260505220355 83 167 2.6 9.6 0.00 0.00 0.00 77 1006.7
20260505215400 82 158 4.3 7.8 0.00 0.00 0.00 77 1006.9
20260505214325 83 169 2.6 8.7 0.00 0.00 0.00 78 1007.1
20260505213350 83 145 3.5 8.7 0.00 0.00 0.00 77 1007.2
20260505212338 83 194 2.6 9.6 0.00 0.00 0.00 77 1007.4
20260505211325 83 193 3.5 9.6 0.00 0.00 0.00 78 1007.5
20260505210326 83 163 4.3 9.6 0.00 0.00 0.00 77 1007.7
20260505205334 83 154 2.6 7.0 0.00 0.00 0.00 78 1007.8
20260505204342 83 180 1.7 5.2 0.00 0.00 0.00 79 1007.9
20260505203323 83 185 2.6 7.8 0.00 0.00 0.00 78 1008.1
20260505202333 83 171 3.5 8.7 0.00 0.00 0.00 77 1008.2
20260505201339 83 153 3.5 10.4 0.00 0.00 0.00 78 1008.2
20260505200342 82 167 3.5 7.0 0.00 0.00 0.00 80 1008.3
20260505195327 81 175 3.5 6.1 0.00 0.00 0.00 82 1008.6
20260505194334 81 129 3.5 7.0 0.00 0.00 0.00 81 1008.7
20260505193340 81 158 1.7 7.8 0.00 0.00 0.00 80 1008.8
20260505192328 81 152 1.7 7.8 0.00 0.00 0.00 81 1008.9
20260505191340 81 155 2.6 5.2 0.00 0.00 0.00 81 1008.9
20260505190401 81 198 1.7 6.1 0.00 0.00 0.00 81 1009.0
20260505185329 81 175 4.3 7.8 0.00 0.00 0.00 80 1009.0